Volver al catálogo

COSMOS 1563

ActivoMilitarLEO
NORAD 15002·PAYLOAD·🇷🇺 Russia

Lanzado May 28, 1984 desde Plesetsk Cosmodrome

Loading…

Próximos Pases (próximas 24 horas)

TLE

ActualizadoSource: Space-Track

Época: Sep 14, 2026, 08:35 UTC

1 15002U 84052E   26257.35811583 -.00000001  00000-0  98387-4 0  9994
2 15002  74.0107 125.3100 0025003 256.8792 216.9040 12.51841491665364

Sigue COSMOS 1563 en tiempo real con AllMySat

Download on the App Store